TimeEST,TemperatureF,Dew PointF,Humidity,Sea Level PressureIn,VisibilityMPH,Wind Direction,Wind SpeedMPH,Gust SpeedMPH,PrecipitationIn,Events,Conditions,WindDirDegrees,DateUTC
12:42 AM,48.2,46.4,93,29.94,2.0,SSW,4.6,-,0.03,Rain,Rain,210,2012-11-07 05:42:00
12:53 AM,48.0,46.9,96,29.94,3.0,SSW,4.6,-,0.07,Rain,Rain,200,2012-11-07 05:53:00
1:30 AM,48.2,46.4,93,29.93,5.0,South,3.5,-,0.02,Rain,Light Rain,190,2012-11-07 06:30:00
1:39 AM,48.2,46.4,93,29.93,4.0,SW,4.6,-,0.02,Rain,Light Rain,220,2012-11-07 06:39:00
1:53 AM,48.0,46.9,96,29.94,3.0,Calm,Calm,-,0.04,Rain,Light Rain,0,2012-11-07 06:53:00
2:09 AM,48.2,46.4,93,29.93,5.0,SSW,3.5,-,0.01,Rain,Light Rain,200,2012-11-07 07:09:00
2:53 AM,48.0,46.0,93,29.92,7.0,Calm,Calm,-,0.02,,Overcast,0,2012-11-07 07:53:00
3:53 AM,48.0,46.0,93,29.91,10.0,Calm,Calm,-,N/A,,Overcast,0,2012-11-07 08:53:00
4:53 AM,46.9,46.0,97,29.91,10.0,SW,3.5,-,N/A,,Overcast,230,2012-11-07 09:53:00
5:19 AM,46.4,46.4,100,29.90,8.0,SSE,3.5,-,N/A,,Overcast,150,2012-11-07 10:19:00
5:53 AM,46.9,46.0,97,29.91,9.0,Calm,Calm,-,N/A,,Overcast,0,2012-11-07 10:53:00
6:53 AM,46.9,46.0,97,29.91,9.0,Calm,Calm,-,0.00,,Overcast,0,2012-11-07 11:53:00
7:53 AM,46.9,46.0,97,29.92,10.0,SSW,4.6,-,N/A,,Mostly Cloudy,210,2012-11-07 12:53:00
8:53 AM,48.0,45.0,89,29.94,10.0,Calm,Calm,-,N/A,,Mostly Cloudy,0,2012-11-07 13:53:00
9:53 AM,48.9,44.1,83,29.94,10.0,West,6.9,-,N/A,,Mostly Cloudy,260,2012-11-07 14:53:00
10:53 AM,50.0,42.1,74,29.95,10.0,WNW,10.4,-,N/A,,Mostly Cloudy,290,2012-11-07 15:53:00
11:53 AM,50.0,41.0,71,29.94,10.0,West,5.8,-,N/A,,Mostly Cloudy,280,2012-11-07 16:53:00
12:53 PM,53.1,39.9,61,29.93,10.0,NW,9.2,-,N/A,,Mostly Cloudy,320,2012-11-07 17:53:00
1:53 PM,52.0,39.0,61,29.92,10.0,NNW,8.1,-,N/A,,Mostly Cloudy,340,2012-11-07 18:53:00
2:53 PM,52.0,39.0,61,29.93,10.0,NNW,8.1,-,N/A,,Mostly Cloudy,330,2012-11-07 19:53:00
3:53 PM,50.0,41.0,71,29.96,10.0,North,11.5,-,0.00,,Mostly Cloudy,360,2012-11-07 20:53:00
4:53 PM,50.0,41.0,71,29.98,10.0,NW,5.8,-,N/A,,Mostly Cloudy,310,2012-11-07 21:53:00
5:53 PM,50.0,41.0,71,30.01,10.0,North,5.8,-,N/A,,Mostly Cloudy,10,2012-11-07 22:53:00
6:53 PM,48.0,39.9,74,30.03,10.0,NNW,8.1,-,N/A,,Mostly Cloudy,330,2012-11-07 23:53:00
7:53 PM,46.0,39.9,79,30.05,10.0,NNW,4.6,-,N/A,,Scattered Clouds,340,2012-11-08 00:53:00
8:53 PM,44.1,39.9,85,30.08,10.0,WNW,3.5,-,N/A,,Scattered Clouds,300,2012-11-08 01:53:00
9:53 PM,44.1,39.9,85,30.10,10.0,WNW,3.5,-,N/A,,Mostly Cloudy,300,2012-11-08 02:53:00
10:53 PM,45.0,41.0,86,30.10,10.0,NNW,5.8,-,N/A,,Mostly Cloudy,330,2012-11-08 03:53:00
11:53 PM,45.0,41.0,86,30.09,10.0,WNW,4.6,-,N/A,,Mostly Cloudy,300,2012-11-08 04:53:00